Timeline UpdatesTrip UpdatesNews PostsPvt PostsTravel TipsAdmin PostsConv PostsFollowed PostsChat RequestsBlog PostsPNR Posts

Disclaimer
Search
 
 
Tue Sep 16, 2014 08:28:43 ISTHomeTrainsΣChainsAtlasPNRForumGalleryNewsFAQTripsMembersLoginFeedback
No Recent News for this Train
Other Trains in the News **new
Latest...
⇐ Return Journey: Train# 59342

59341/Nagda Bina Passenger (UnReserved)

Time-Table HAS CHANGED.
Sep 03 (5:56PM)
Change Departure Station:
Change Arrival Station:
Post a Train Travel TipPost a Train Travel Tip **new
Post a Comment/Question/Picture/VideoPost a Comment/Question/Picture/Video
Pantry/Catering
✕ NO Pantry Car
✕ NO Catering
RSA - Rake Sharing
59307/59354/59353/59318/59346/59345/59341/59342/59317/59306; Entry# 518023
Rake/Coach Composition
Loco
News    PNR    Forum    Time-Table    Availability    Fare Chart    Map    Arr/Dep History    Trips    Gallery    ΣChains    X/O    Timeline    
Travel Time: 3h 19m    13 halts    Distance: 106 km    Avg Speed: 31 km/hr
Type: Passenger
Zone: WR/Western
Departs @ 20:06 (Avg 40m late)
Platform# ???
SMTWTFS
Pagara/PGA 
Arrives @ 23:25 (Avg 1m late)
Platform# 5
SMTWTFS
Bina Junction/BINA 

13 halts. 13 intermediate Stations between Pagara and Bina Junction

Show ALL intermediate Stations  Show Old Time-Table

#CodeStation NameX/OArrivesAvgDepartsAvgHaltPFDay#KmSpeedElevZoneAddress
1NADNagda Junction (4)  -11:35+5--1-326.761468mWRNagda, Madhya Pradesh
2BTSDBhatisuda new halt!!  11:41-11:42-1m--1-320.636482mWRUjjain, Madhya Pradesh
3PPGPiploda Bagla  11:51+511:52+51m--1-315.152475mWRPiploda Sagotimata, Madhya Pradesh
4UNLUnhel  12:00+412:01+41m--1-308.158484mWRUjjain, Madhya Pradesh
5PSOPalsora MakrawaX  12:10+312:11+41m--1-299.552499mWRUjjain, Madhya Pradesh
6ASLAslaoda  12:21+312:22+41m--1-290.846489mWRUjjain, Madhya Pradesh
7NKINaikheriX  12:33+412:34+51m--1-282.419504mWRUjjain, Madhya Pradesh
8UJNUjjain Junction (8)X  13:10+313:40+930m--1-271.045492mWRUjjain 456001, Madhya Pradesh
9PLWPingleshwar  13:52+1313:53+131m--1-262.149509mWRMaksi, Madhya Pradesh
10TJPTajpur (2)  14:01+1214:02+121m--1-255.573528mWRMaksi, Madhya Pradesh
11SVTShivpura  14:10-14:11-1m--1-245.862499mWRMaksi, Madhya Pradesh
12TANTarana RoadXO  14:19+1214:20+141m--1-237.611498mWRMaksi, Madhya Pradesh
13MKCMaksi Junction (3)  15:13-115:15+02m--1-228.077513mWRMakshi, Madhya Pradesh
14SYOSiroliya  15:24 15:23-15:25-1 2m--1-217.843462mWCRShajapur, Madhya Pradesh
15CAZChauhani  15:34 15:32-15:35 15:34-1 2m--1-212.863478mWCRShajapur, Madhya Pradesh
16SFYShajapurX  15:47 15:46+615:49 15:48+62m--1-200.357450mWCRShajapur, Madhya Pradesh
17SFWSarangpur  16:15 16:16+516:17 16:18+52m--1-173.765422mWCRSarangpur, Madhya Pradesh
18PQUParhana Mau (1)X  16:29 16:27+416:30 16:29+141 2m11-163.956440mWCRNational Highway 3, Madhya Pradesh
19UDKUdyan Kheri (1)  16:44 16:39-16:45 16:40-1m11-154.674435mWCRUdankheri, Madhya Pradesh
20PFRPachor Road  16:57 16:51+1216:58 16:53+191 2m--1-141.070419mWCRPachore, Madhya Pradesh
21BRRGBiyavra Rajgarh  17:24 17:18+2117:25 17:20+221 2m--1-111.854423mWCRBiaora, Madhya Pradesh
22SFZSinduriya Kachari (2)  17:34 17:31+2417:35 17:33+251 2m21-101.977428mWCRGuna, Madhya Pradesh
23CBKChachaura Binaganj (1)  17:54 17:49+2917:55 17:51+301 2m11-81.468435mWCRGuna, Madhya Pradesh
24KHRJKumbhraj (1)  18:17 18:11+1918:18 18:13+201 2m11-58.773401mWCRManpura, Madhya Pradesh
25RGGRadogarh (1)  18:27 18:23-18:28 18:25-1 2m11-46.660417mWCRVijaypur, Madhya Pradesh
26VJPVijay Pur  18:39 18:32+2318:40 18:34+241 2m--1-39.610420mWCRVijaipur, Madhya Pradesh
27RTARuthiyai Junction (2)  19:00 19:05+1519:05 19:10+195m--1-34.458414mWCRRuthiyai, Madhya Pradesh
28MUGAMahugara  19:18 19:24+2419:20 19:26+302m--1-20.932501mWCRRuthiyai, Madhya Pradesh
29GUNAGuna Junction (3)  19:35 19:40+1519:45 19:50+1610m21-13.577477mWCRJn Point Indore/Gwalior/Bina/Kota, Madhya Pradesh
30MABNMaban  19:52 19:55+3319:53 19:57+341 2m--1-7.161501mWCRState Highway 23, Madhya Pradesh
31PGA»Pagara»  20:01 20:04+3520:03 20:06+402m--10.064494mWCRGuna, Madhya Pradesh
32PIGTPilighat  20:09 20:12+4220:10 20:14+431 2m--16.468471mWCRGUNA Rd, Madhya Pradesh
33SHDRShadhoragaonX  20:24 20:22+3820:25 20:24+391 2m--115.461504mWCRGuna, Madhya Pradesh
34RIKARatikheda  20:33 20:32+4020:35 20:34+462m--123.554526mWCRGuna, Madhya Pradesh
35ASKNAshok Nagar (2)  20:43 20:42+2220:45 20:44+232m--130.768502mWCRAshoknagar, Madhya Pradesh
36HPKAHinotia Pipalkhera  20:51 20:52+3320:52 20:54+331 2m--139.843460mWCRAshoknagar, Madhya Pradesh
37ORROrrX  20:58 20:59+3421:00 21:01+382m--143.443450mWCRAshoknagar, Madhya Pradesh
38RTWSRahatwas new halt!!  21:08+4021:10+422m--148.377459mWCRRatwas, Madhya Pradesh
39PIAPipraigaon (3)  21:14 21:17+4121:16 21:19+412m2157.359451mWCRAshoknagar, Madhya Pradesh
40GVBGuneru Bamori (2)  21:24 21:30+4621:26 21:32+462m--168.263427mWCRAshoknagar, Madhya Pradesh
41MNVMungaoli (2)  21:34 21:40+1:0021:36 21:42+1:062m--176.653403mWCRAshoknagar, Madhya Pradesh
42KXBKanjiya  21:44 21:51+1:0021:46 21:53+1:002m--184.682390mWCRMungaoli, Madhya Pradesh
43SRKISemarkheri  21:50 21:59+1:0421:52 22:01+1:042m--192.834412mWCRBina, Madhya Pradesh
44MDVKMahadeokhediX  21:58 22:10+1:0522:00 22:12+1:052m--197.96423mWCRBina, Madhya Pradesh
45BINA•Bina Junction (5)•  23:25+1-51105.6-414mWCRJn Pt - KATNI/GUNA/ BPL/JHS, Madhya Pradesh
Scroll to Top
Scroll to Bottom